This demonstration page uses our WeatherBlox Daily Observations layout. Learn more.

Left ArrowRight Arrow

44.8408, -93.29828

Hourly Observations for May 8, 2021

Temp ( °F °C ) Dew Point ( °F °C ) Humidity (%) Winds ( mph kmh ) Pressure ( in mb ) Visibility ( mi km ) Precip ( " mm )
12:53 am 00:53 Clear 45 7.2 26 -3.3 48 48 E 9 15 30.13 1020 10 16 0.00 0.00
1:53 am 01:53 Clear 44 6.7 26 -3.3 49 49 ESE 8 13 30.14 1021 10 16 0.00 0.00
2:53 am 02:53 Clear 42 5.6 27 -2.8 55 55 SE 5 7 30.14 1021 10 16 0.00 0.00
3:53 am 03:53 Clear 41 5 27 -2.8 57 57 SSE 6 9 30.15 1021 10 16 0.00 0.00
4:53 am 04:53 Clear 41 5 26 -3.3 55 55 SSE 5 7 30.14 1021 10 16 0.00 0.00
5:53 am 05:53 Sunny 41 5 26 -3.3 55 55 Calm 30.14 1021 10 16 0.00 0.00
6:53 am 06:53 Partly Cloudy 42 5.6 27 -2.8 55 55 SE 3 6 30.14 1021 10 16 0.00 0.00
7:53 am 07:53 Mostly Sunny 45 7.2 28 -2.2 52 52 SSE 6 9 30.14 1021 10 16 0.00 0.00
8:53 am 08:53 Mostly Sunny 49 9.4 28 -2.2 44 44 S 6 9 30.14 1021 10 16 0.00 0.00
9:53 am 09:53 Mostly Cloudy 52 11.1 26 -3.3 37 37 S 8 13 30.13 1020 10 16 0.00 0.00
10:53 am 10:53 Mostly Cloudy 54 12.2 27 -2.8 35 35 Calm 30.11 1020 10 16 0.00 0.00
11:53 am 11:53 Cloudy 54 12.2 25 -3.9 33 33 ESE 7 11 30.09 1019 10 16 0.00 0.00
12:53 pm 12:53 Cloudy 56 13.3 25 -3.9 30 30 SE 9 15 30.09 1019 10 16 0.00 0.00
1:53 pm 13:53 Cloudy 58 14.4 27 -2.8 31 31 E 8 13 30.06 1018 10 16 0.00 0.00
2:53 pm 14:53 Cloudy 56 13.3 24 -4.4 29 29 E 6 9 30.05 1018 10 16 0.00 0.00
3:53 pm 15:53 Cloudy 57 13.9 24 -4.4 28 28 S 9 15 30.03 1017 10 16 0.00 0.00
4:53 pm 16:53 Cloudy 56 13.3 25 -3.9 30 30 SE 3 6 30.01 1016 10 16 0.00 0.00
5:53 pm 17:53 Cloudy 56 13.3 26 -3.3 32 32 SE 5 7 30.00 1016 10 16 0.00 0.00
6:53 pm 18:53 Cloudy 56 13.3 27 -2.8 33 33 SE 6 9 29.99 1016 10 16 0.00 0.00
7:53 pm 19:53 Cloudy 55 12.8 26 -3.3 33 33 SSE 5 7 29.99 1016 10 16 0.00 0.00
8:53 pm 20:53 Mostly Cloudy 54 12.2 26 -3.3 34 34 S 7 11 30.00 1016 10 16 0.00 0.00
9:53 pm 21:53 Mostly Cloudy 53 11.7 27 -2.8 37 37 SW 5 7 30.03 1017 10 16 0.00 0.00
10:53 pm 22:53 Mostly Cloudy 52 11.1 28 -2.2 40 40 Calm 30.02 1017 10 16 0.00 0.00
11:53 pm 23:53 Cloudy 50 10 30 -1.1 46 46 Calm 30.03 1017 10 16 0.00 0.00

Powered by AerisWeather